Marshfield, WI

8:54 AM CDT on October 19, 2017 (GMT -0500)
Marshfield Municipal

Weather History for KMFI - January, 2011

Change the Weather History Date:

Monday, January 17, 2011

  Actual Average Record
Temperature  
Mean Temperature 17 °F -  
Max Temperature 24 °F 23 °F 44 °F (1986)
Min Temperature 10 °F 4 °F -33 °F (1982)
Degree Days  
Heating Degree Days 48    
Moisture  
Dew Point 13 °F    
Average Humidity 83    
Maximum Humidity 88    
Minimum Humidity 73    
Precipitation  
Precipitation 0.02 in - - ()
Sea Level Pressure  
Sea Level Pressure 29.70 in    
Wind  
Wind Speed 11 mph (SSE)    
Max Wind Speed 17 mph    
Max Gust Speed 24 mph    
Visibility 3 miles    
Events Fog , Snow    
Averages and records for this station are not official NWS values.
T = Trace of Precipitation, MM = Missing Value Source: NWS Daily Summary

Daily Weather History Graph

Daily Weather History Graph

Search for Another Location

Airport or City:

Trip Planner

Search our weather history database for the weather conditions in past years. The results will help you decide how hot, cold, wet, or windy it might be!

Date:

Astronomy

Jan. 17, 2011 Rise Set
Actual Time 7:33 AM CST 4:48 PM CST
Civil Twilight 7:00 AM CST 5:21 PM CST
Nautical Twilight 6:24 AM CST 5:57 PM CST
Astronomical Twilight 5:50 AM CST 6:32 PM CST
Moon 2:34 PM CST (1/17) 5:39 AM CST (1/17)
Length of Visible Light 10h 20m
Length of Day
9h 15m
Waxing Gibbous, 94% of the Moon is Illuminated
Jan 17
Waxing Gibbous
Jan 19
Full
Jan 26
Last Quarter
Feb 2
New
Feb 11
First Quarter

Hourly Weather History & Observations

Time (CST) Temp. Windchill Dew Point Humidity Pressure Visibility Wind Dir Wind Speed Gust Speed Precip Events Conditions
12:54 AM 10.0 °F -4.5 °F 3.0 °F 73% 30.01 in 10.0 mi SSE 11.5 mph - N/A   Overcast
1:19 AM 10.4 °F -3.3 °F 3.2 °F 73% 29.91 in 10.0 mi South 10.4 mph - N/A   Overcast
1:54 AM 10.9 °F -2.6 °F 3.9 °F 73% 29.98 in 10.0 mi SSE 10.4 mph - N/A   Overcast
2:24 AM 10.4 °F -4.1 °F 3.2 °F 73% 29.87 in 10.0 mi SSE 11.5 mph - N/A   Overcast
2:54 AM 10.9 °F -4.7 °F 5.0 °F 77% 29.93 in 7.0 mi SSE 13.8 mph - 0.00 in Snow Light Snow
3:22 AM 10.4 °F -3.3 °F 5.0 °F 79% 29.83 in 2.5 mi SSE 10.4 mph - 0.00 in Snow Light Snow
3:30 AM 10.4 °F -3.3 °F 6.8 °F 85% 29.83 in 1.2 mi SE 10.4 mph - 0.00 in Snow Light Snow
3:54 AM 12.0 °F -2.0 °F 7.0 °F 80% 29.90 in 1.5 mi SSE 11.5 mph - 0.00 in Snow Light Snow
4:04 AM 12.2 °F -2.5 °F 6.8 °F 79% 29.81 in 0.8 mi SSE 12.7 mph - 0.00 in Snow Light Snow
4:11 AM 12.2 °F -1.0 °F 6.8 °F 79% 29.80 in 0.8 mi SE 10.4 mph - 0.00 in Snow Light Snow
4:23 AM 12.2 °F -3.1 °F 8.6 °F 85% 29.79 in 1.0 mi SSE 13.8 mph - 0.00 in Snow Light Snow
4:36 AM 12.2 °F -3.1 °F 8.6 °F 85% 29.78 in 1.2 mi SSE 13.8 mph - 0.00 in Snow Light Snow
4:45 AM 12.2 °F -4.3 °F 8.6 °F 85% 29.77 in 1.0 mi SE 16.1 mph 21.9 mph 0.00 in Snow Light Snow
4:54 AM 12.9 °F -2.8 °F 9.0 °F 84% 29.85 in 1.2 mi SSE 15.0 mph 21.9 mph 0.00 in Snow Light Snow
5:09 AM 14.0 °F -2.0 °F 8.6 °F 79% 29.76 in 3.0 mi SSE 16.1 mph 24.2 mph 0.00 in Snow Light Snow
5:21 AM 14.0 °F -1.4 °F 8.6 °F 79% 29.76 in 1.8 mi SSE 15.0 mph - 0.00 in Snow Light Snow
5:32 AM 14.0 °F -2.0 °F 10.4 °F 86% 29.75 in 2.0 mi SSE 16.1 mph - 0.00 in Snow Light Snow
5:54 AM 15.1 °F -1.1 °F 10.0 °F 80% 29.82 in 2.5 mi SSE 17.3 mph - 0.00 in Snow Light Snow
6:41 AM 15.8 °F 1.4 °F 10.4 °F 79% 29.71 in 1.8 mi SSE 13.8 mph - 0.00 in Snow Light Snow
6:54 AM 15.1 °F 0.5 °F 10.0 °F 80% 29.78 in 1.8 mi SSE 13.8 mph - 0.00 in Snow Light Snow
7:03 AM 15.8 °F 2.1 °F 10.4 °F 79% 29.70 in 3.0 mi SSE 12.7 mph - 0.00 in Snow Light Snow
7:15 AM 15.8 °F 2.1 °F 10.4 °F 79% 29.69 in 2.5 mi SSE 12.7 mph - 0.00 in Snow Light Snow
7:22 AM 15.8 °F 1.4 °F 10.4 °F 79% 29.69 in 1.5 mi SSE 13.8 mph - 0.00 in Snow Light Snow
7:33 AM 15.8 °F 1.4 °F 10.4 °F 79% 29.68 in 1.0 mi SSE 13.8 mph - 0.01 in Snow Light Snow
7:54 AM 16.0 °F 2.3 °F 12.0 °F 84% 29.76 in 0.8 mi SSE 12.7 mph - 0.01 in Snow Light Snow
7:59 AM 15.8 °F 2.7 °F 12.2 °F 86% 29.68 in 1.0 mi SSE 11.5 mph - 0.00 in Snow Light Snow
8:34 AM 17.6 °F 5.0 °F 12.2 °F 79% 29.66 in 0.5 mi SSE 11.5 mph - 0.00 in Fog , Snow Snow
8:45 AM 17.6 °F 4.3 °F 12.2 °F 79% 29.66 in 1.0 mi SSE 12.7 mph - 0.00 in Snow Light Snow
8:54 AM 17.1 °F 4.3 °F 12.9 °F 84% 29.73 in 1.0 mi SSE 11.5 mph - 0.00 in Snow Light Snow
9:10 AM 17.6 °F 5.7 °F 14.0 °F 86% 29.65 in 1.2 mi SSE 10.4 mph - 0.00 in Snow Light Snow
9:17 AM 17.6 °F 5.0 °F 14.0 °F 86% 29.65 in 2.0 mi SSE 11.5 mph - 0.00 in Snow Light Snow
9:54 AM 19.0 °F 7.5 °F 15.1 °F 85% 29.71 in 1.0 mi SSE 10.4 mph - 0.00 in Snow Light Snow
10:01 AM 19.4 °F 7.2 °F 15.8 °F 86% 29.63 in 1.0 mi SSE 11.5 mph - 0.00 in Snow Light Snow
10:09 AM 19.4 °F 7.9 °F 15.8 °F 86% 29.63 in 1.8 mi SSE 10.4 mph - 0.00 in Snow Light Snow
10:13 AM 19.4 °F 7.9 °F 15.8 °F 86% 29.64 in 2.0 mi SSE 10.4 mph - 0.00 in Snow Light Snow
10:31 AM 19.4 °F 6.6 °F 15.8 °F 86% 29.63 in 5.0 mi South 12.7 mph - 0.00 in   Haze
10:54 AM 19.9 °F 7.3 °F 16.0 °F 85% 29.69 in 5.0 mi South 12.7 mph - 0.00 in   Overcast
11:21 AM 19.4 °F 7.9 °F 15.8 °F 86% 29.59 in 2.0 mi SSE 10.4 mph - 0.00 in Snow Light Snow
11:54 AM 21.0 °F 8.1 °F 17.1 °F 85% 29.64 in 1.5 mi SSE 13.8 mph - 0.00 in Snow Light Snow
12:17 PM 21.2 °F 9.5 °F 17.6 °F 86% 29.55 in 0.8 mi SSE 11.5 mph - 0.00 in Snow Light Snow
12:28 PM 21.2 °F 10.9 °F 17.6 °F 86% 29.55 in 1.2 mi SSE 9.2 mph - 0.00 in Snow Light Snow
12:37 PM 21.2 °F 10.1 °F 17.6 °F 86% 29.54 in 2.0 mi SSE 10.4 mph - 0.00 in Snow Light Snow
12:54 PM 21.9 °F 11.0 °F 18.0 °F 85% 29.61 in 2.5 mi SSE 10.4 mph - 0.01 in Snow Light Snow
1:09 PM 21.2 °F 10.9 °F 17.6 °F 86% 29.53 in 3.0 mi SSE 9.2 mph - 0.00 in   Overcast
1:54 PM 23.0 °F 15.8 °F 19.0 °F 85% 29.60 in 3.0 mi South 5.8 mph - 0.00 in   Overcast
2:04 PM 23.0 °F 17.0 °F 19.4 °F 86% 29.53 in 3.0 mi SSE 4.6 mph - N/A   Overcast
2:54 PM 23.0 °F 14.7 °F 19.0 °F 85% 29.60 in 4.0 mi South 6.9 mph - N/A   Overcast
3:54 PM 24.1 °F 18.2 °F 19.9 °F 84% 29.61 in 4.0 mi South 4.6 mph - N/A   Overcast
4:37 PM 24.8 °F 20.5 °F 19.4 °F 80% 29.55 in 4.0 mi South 3.5 mph - N/A   Overcast
4:54 PM 24.1 °F - 19.9 °F 84% 29.62 in 4.0 mi Calm Calm - N/A   Overcast
5:54 PM 24.1 °F - 19.9 °F 84% 29.63 in 4.0 mi Calm Calm - 0.00 in   Overcast
6:22 PM 23.0 °F - 19.4 °F 86% 29.57 in 2.0 mi Calm Calm - 0.00 in Snow Light Snow
6:36 PM 23.0 °F - 19.4 °F 86% 29.57 in 2.5 mi Calm Calm - 0.00 in Snow Light Snow
6:45 PM 23.0 °F - 19.4 °F 86% 29.58 in 4.0 mi Calm Calm - 0.00 in   Overcast
6:54 PM 23.0 °F - 19.9 °F 88% 29.65 in 4.0 mi Calm Calm - 0.00 in   Overcast
6:58 PM 23.0 °F - 19.4 °F 86% 29.58 in 4.0 mi Calm Calm - N/A   Overcast
7:54 PM 23.0 °F 18.4 °F 19.9 °F 88% 29.66 in 4.0 mi WNW 3.5 mph - N/A   Overcast
8:54 PM 23.0 °F 13.9 °F 19.0 °F 85% 29.67 in 4.0 mi NW 8.1 mph - N/A   Overcast
9:15 PM 23.0 °F 13.1 °F 19.4 °F 86% 29.61 in 4.0 mi NNW 9.2 mph - N/A   Overcast
9:54 PM 23.0 °F 12.4 °F 18.0 °F 81% 29.70 in 5.0 mi NNW 10.4 mph - N/A   Haze
10:11 PM 21.2 °F 10.1 °F 17.6 °F 86% 29.64 in 5.0 mi NNW 10.4 mph - N/A   Overcast
11:54 PM 21.9 °F 10.4 °F 16.0 °F 78% 29.73 in 6.0 mi NNW 11.5 mph - N/A   Haze